Volver al catálogo

CZ-3B DEB

ActivoGTO
NORAD 40845·DEBRIS·🇨🇳 China

Lanzado Dec 19, 2011 desde Xichang Satellite Launch Center

Loading…

TLE

ObsoletoSource: Space-Track

Época: Aug 23, 2026, 16:24 UTC

1 40845U 11077AA  26235.68343645 -.00000208  00000-0  17056-2 0  9996
2 40845  21.8289 114.1668 7376069 231.1078  36.8564  2.07716817 93722

Sigue CZ-3B DEB en tiempo real con AllMySat

Download on the App Store